Location: Wildlife_Club
(35.6000°N, 81.4330°W)
Time: 03:03:05
(UTC-04:00)

Vanguard 2 Rocket - Pass Details

Date: 27 June 2019
Orbit: 554 x 3326 km, 32.9° (Epoch: 15 July)

Event Time Altitude Azimuth Distance (km) Brightness Sun altitude
Rises 01:27:29 0° 277° (W) 4,420 10.5 -31.1°
Reaches altitude 10° 01:29:57 10° 274° (W) 3,727 10.0 -31.1°
Maximum altitude 01:40:12 67° 195° (SSW) 2,398 8.6 -31.0°
Drops below altitude 10° 01:57:41 10° 118° (ESE) 6,017 10.9 -30.7°
Sets 02:02:54 0° 116° (ESE) 7,217 11.3 -30.5°
